sat.trackr.live / text

‹ back to catalog

STARLINK-32085

NORAD 59685 · 2024-086D

PAYLOAD ACTIVE UNKNOWN

§ Identity

Operator
Country
US
Launch date
2024-05-08
Launch site
AFETR
Launch vehicle
Mass (kg)
RCS (m²)

Purposes: comms

External: N2YO · Heavens-Above · Gunter

§ Orbital elements

Epoch: 2026-05-24T22:35:42.163008Z

Period
94.27 min
Inclination
43.0020°
Eccentricity
0.0001142
Mean motion
15.27581411 rev/d
Perigee alt
482.3 km
Apogee alt
483.8 km
Semi-major
6,861.2 km
B*
5.2837e-5
RAAN
349.2855°
Arg perigee
277.1460°
Mean anomaly
82.9262°
Rev number
11,577

§ Raw data

STARLINK-320851 59685U 24086D   26144.94146022  .00001192  00000+0  52837-4 0  99992 59685  43.0020 349.2855 0001142 277.1460  82.9262 15.27581411115770

JSON: /api/v1/satellites/59685 · /tle

For live sub-satellite position, see the globe view (requires WebGL).

§ Visibility from observer

Set your observer location to see the next 7 days of passes ≥ 10°. The values pass through the URL so the page stays shareable.

No JS? Fill the form by hand. The geolocation button needs JavaScript.